Wind_Speed
12 11 10 9 7 6 6 6 5 3 2 3 3 2 2 2 2 2 3 3 2 2 2 2 3 3 3 4 5 5 6 7 8 8 9 9 8 7 6 6 6 6 5 4 2 2 2 4 6 6 8 10 10 11 12 13 15 17 18 16 13 12 11
13 11 10 9 8 7 8 7 5 3 3 2 2 2 3 3 2 2 3 3 3 3 3 3 4 3 2 3 4 5 6 6 6 7 8 8 7 6 5 4 4 4 4 4 3 3 3 5 6 7 8 10 11 11 11 13 16 18 17 14 12 11 10
13 12 11 10 9 8 9 8 6 4 3 2 2 3 3 3 3 2 2 2 2 3 4 4 3 3 2 2 3 4 5 6 7 7 7 7 6 5 4 4 3 3 3 4 5 4 4 4 5 7 8 9 10 11 12 15 17 17 15 13 11 10 9
14 12 11 10 9 9 10 8 6 4 4 4 4 4 3 3 3 2 2 2 2 3 2 3 2 2 2 1 1 3 4 5 7 6 6 6 4 3 3 3 3 3 3 4 5 6 5 3 3 6 7 8 9 10 14 16 17 16 13 11 10 8 8
15 13 11 10 10 10 10 9 7 5 4 5 5 5 4 4 3 2 2 1 2 2 1 2 2 1 2 1 1 1 3 5 6 5 5 4 3 3 3 3 3 3 4 4 5 6 4 3 3 4 6 7 8 11 15 17 15 13 11 10 8 7 7
17 15 13 11 11 11 10 9 8 6 5 5 5 4 4 3 3 2 1 1 2 1 1 1 1 1 1 1 2 1 2 3 4 4 4 4 3 3 4 3 3 3 5 6 5 5 4 3 3 3 5 7 9 13 16 16 13 11 10 9 8 7 7
18 16 14 13 12 11 11 10 9 7 6 5 5 4 4 3 2 1 1 2 2 2 1 1 1 1 1 2 2 1 1 2 3 4 4 4 3 3 4 3 3 4 4 5 5 4 3 2 2 3 6 8 11 15 17 14 12 10 10 9 8 8 8
18 17 16 14 14 13 11 10 9 8 7 7 6 5 4 4 3 2 1 2 2 2 2 1 1 1 2 2 2 1 0 1 3 4 4 3 2 2 3 3 2 3 3 5 5 4 1 2 3 4 7 9 12 16 16 13 11 10 9 8 8 8 8
19 18 16 15 15 13 12 11 9 9 8 7 6 6 5 4 3 2 1 1 1 1 1 2 2 3 3 3 2 1 1 2 3 4 3 3 2 2 3 3 2 3 4 5 5 3 1 1 3 6 8 9 13 16 15 11 10 9 9 8 8 8 9
20 18 16 16 15 14 13 12 12 11 9 7 6 6 6 5 4 4 4 2 1 1 1 2 3 3 3 3 2 1 1 2 3 4 3 2 2 3 4 3 3 4 5 5 4 2 0 2 4 6 8 10 14 16 13 10 9 9 9 8 8 9 9
21 19 17 16 15 14 14 14 14 13 10 9 7 7 7 6 6 6 5 4 3 3 2 3 3 3 2 2 1 1 2 2 3 3 3 2 3 4 4 5 5 5 5 4 3 1 0 3 5 7 9 12 14 14 10 9 9 9 8 8 8 9 8
21 20 18 17 15 14 14 14 15 13 11 10 8 7 8 8 7 6 6 5 4 4 4 4 4 3 2 1 0 1 2 3 3 4 3 3 3 4 5 5 5 5 5 4 2 1 2 3 5 7 10 13 13 11 9 9 9 9 9 8 8 8 8
21 20 19 17 14 13 13 13 14 13 11 11 9 8 9 8 7 6 5 5 5 5 6 5 5 4 3 2 1 2 3 4 4 4 4 4 4 5 6 5 6 6 5 4 3 2 2 3 5 8 11 12 12 10 10 9 9 10 9 9 9 8 7
20 18 17 16 15 13 13 13 13 12 11 11 10 9 10 9 8 5 4 5 5 6 6 6 6 5 4 3 3 3 4 4 4 5 5 5 5 6 6 7 7 7 6 5 3 1 2 3 5 8 11 12 11 10 10 10 10 10 10 9 9 8 7
19 17 16 17 16 13 12 12 13 11 10 10 9 10 10 9 7 5 4 5 6 6 6 6 6 5 5 4 4 4 5 4 4 5 5 5 5 6 7 8 8 8 8 6 3 2 1 3 5 8 11 12 11 10 11 10 10 11 10 9 9 8 7
19 18 18 18 15 13 12 12 11 10 9 9 9 10 10 9 7 6 5 5 6 6 6 6 5 5 4 4 4 4 4 4 4 4 5 6 6 6 7 8 9 9 7 5 5 4 2 3 5 8 11 12 11 11 11 10 11 12 11 9 7 7 6
20 19 19 16 14 13 12 12 10 9 8 8 9 9 9 8 8 6 5 6 6 6 5 5 5 4 4 4 4 4 4 5 4 4 5 5 5 6 7 8 9 8 6 5 6 4 2 2 5 9 11 12 12 12 11 11 12 13 11 9 6 5 6
22 20 17 15 14 14 13 11 9 8 8 9 9 8 8 8 7 6 5 6 5 5 4 5 4 4 4 4 4 4 5 5 4 4 4 5 6 7 7 7 8 7 5 5 5 4 2 1 5 8 10 12 13 12 11 11 12 12 12 10 7 5 6
21 19 16 14 14 14 12 10 7 7 8 8 7 7 6 6 5 5 5 5 5 4 4 4 4 4 4 4 4 4 4 4 4 4 4 6 8 8 8 7 7 6 5 5 5 4 2 2 6 8 10 11 13 12 10 10 11 12 12 12 9 7 6
19 17 15 14 14 13 11 9 7 7 8 7 6 6 6 6 5 5 4 4 4 4 4 4 4 4 4 4 4 4 3 3 4 5 6 7 8 8 7 6 6 6 5 5 5 3 1 3 6 8 9 11 12 10 9 9 11 12 13 14 12 10 8
18 17 15 14 14 13 11 9 7 7 8 8 7 6 6 6 5 4 4 4 4 4 4 4 4 4 4 4 3 3 2 2 4 7 9 9 8 7 7 6 6 6 5 5 4 2 2 3 6 7 9 11 11 8 7 8 11 13 15 16 15 13 11
19 17 15 14 13 12 11 8 6 6 7 7 7 6 6 6 6 5 4 4 4 4 5 4 4 3 3 4 4 3 2 3 5 7 10 11 9 7 7 7 6 6 6 6 4 2 3 4 6 7 8 11 9 6 6 8 11 14 16 17 18 17 13
17 15 13 12 11 10 9 7 6 6 6 7 7 7 7 7 6 5 4 4 4 5 5 4 3 3 3 4 4 3 3 4 6 8 10 11 10 8 8 7 6 6 5 5 4 3 4 5 6 7 9 9 5 4 6 7 10 13 15 17 19 19 17
15 14 13 12 11 10 10 8 7 6 7 8 8 7 7 7 5 5 4 4 4 4 4 4 3 3 4 4 5 4 4 4 6 8 9 10 9 8 8 7 6 5 5 5 4 4 4 5 5 7 7 5 2 3 5 6 9 12 14 16 19 20 19
16 14 13 11 10 10 10 9 8 7 7 8 8 7 7 6 5 5 4 3 3 4 4 4 4 4 4 5 6 5 5 5 6 7 8 8 8 8 7 7 6 5 5 5 4 3 4 4 4 5 4 2 2 3 5 6 9 11 13 15 16 19 20
17 15 14 12 10 9 9 9 8 7 7 7 7 7 7 6 4 4 3 3 3 4 5 5 5 5 5 6 6 6 5 6 6 7 7 7 6 6 6 5 5 4 4 3 3 3 2 2 2 2 3 3 4 5 6 7 9 10 12 13 15 17 19
16 14 13 11 10 10 10 9 7 6 7 7 7 7 6 5 4 3 3 3 4 5 6 6 5 5 6 7 7 6 6 6 7 7 6 6 5 5 4 4 4 3 2 1 2 2 2 3 4 3 2 3 5 6 7 8 9 10 12 13 14 16 17
17 15 13 12 10 10 10 9 7 6 7 7 7 6 5 4 4 4 4 4 4 5 6 6 6 6 7 7 7 7 7 7 7 6 6 6 6 6 6 6 6 4 3 3 3 4 5 5 3 1 1 3 5 6 7 9 10 12 13 13 15 16 16
18 16 15 12 11 11 11 9 8 7 6 7 6 5 4 4 4 4 4 4 5 6 7 7 7 7 7 7 8 8 8 8 7 7 6 6 7 8 8 8 8 7 7 6 6 6 5 3 1 2 4 5 7 9 10 11 12 14 14 15 16 16 16
18 16 15 13 12 12 10 8 8 7 7 7 6 5 4 3 3 4 5 6 7 7 7 8 8 7 8 8 8 9 9 9 8 7 6 7 9 10 10 10 9 9 8 7 6 4 3 1 2 4 6 8 10 11 12 13 14 15 16 17 17 17 17
18 16 14 13 12 12 10 9 8 7 7 8 7 6 5 4 3 3 5 7 9 9 8 8 8 7 8 9 9 9 9 9 9 8 7 9 11 11 10 9 8 7 6 5 3 2 1 1 4 6 8 10 11 12 12 13 15 16 17 18 17 17 16
18 16 14 13 12 12 11 10 8 7 6 7 7 7 6 5 4 3 5 8 10 9 8 7 6 6 7 9 10 10 9 10 10 9 8 9 11 10 8 7 5 4 3 3 2 3 3 3 5 7 9 11 11 11 10 10 12 13 15 15 15 14 14
18 16 14 13 12 12 13 12 9 6 5 6 7 7 7 6 5 5 6 8 9 9 8 6 6 5 6 9 11 11 10 10 11 10 10 10 10 10 8 6 5 4 3 3 3 4 5 5 6 7 9 11 11 10 9 9 11 12 12 13 13 11 11
17 16 14 13 12 13 14 11 8 6 5 5 5 6 6 7 6 6 6 8 9 8 7 6 6 6 6 8 10 11 10 10 11 11 11 10 9 9 7 5 4 4 4 4 6 7 7 8 8 8 10 11 11 10 10 10 11 12 12 12 11 9 9
16 15 15 15 13 13 13 11 8 7 5 3 3 5 7 6 6 6 5 6 7 8 7 6 6 6 6 7 8 9 10 10 10 10 11 10 10 8 7 5 5 5 5 5 7 8 9 9 9 8 10 11 11 11 11 10 10 12 13 12 10 8 7
17 16 15 15 14 14 13 10 8 7 5 4 4 6 7 5 5 5 5 5 6 6 7 7 6 6 6 7 7 8 8 8 8 8 9 9 9 8 7 6 6 7 7 7 7 8 9 9 8 8 9 11 11 11 11 10 10 11 12 13 11 8 6
17 16 15 15 15 14 13 11 9 7 6 5 6 7 6 5 5 5 5 5 5 5 6 6 6 6 6 6 6 6 6 7 7 7 7 7 7 7 7 6 6 8 8 7 7 7 7 8 8 8 10 11 12 12 10 8 8 9 10 12 12 10 8
15 14 14 14 14 14 13 11 9 7 8 8 9 7 6 6 6 6 6 5 5 5 5 5 5 5 5 5 4 4 4 5 6 6 6 6 6 6 6 6 7 7 8 7 7 7 8 8 9 10 12 13 13 13 10 8 7 8 9 10 11 11 10
Wind_Direction
212 216 214 206 200 193 181 176 172 155 111 78 67 81 110 114 122 131 127 140 151 141 148 143 129 127 130 139 146 153 163 164 164 165 165 165 165 164 163 162 167 178 186 194 209 200 207 253 270 288 304 315 325 333 338 340 342 344 344 345 349 358 4
213 213 210 205 200 193 184 179 173 163 143 115 90 91 114 121 115 117 120 134 139 126 132 138 135 136 146 171 174 171 175 182 182 178 178 178 177 185 184 181 190 193 199 221 234 224 221 243 259 276 292 306 319 328 334 337 339 341 341 342 347 357 3
211 212 206 202 197 190 186 181 172 163 149 141 126 102 113 130 124 113 110 107 88 95 114 123 126 128 138 186 199 190 181 188 194 191 189 187 187 200 203 205 219 217 222 237 242 245 249 249 260 276 289 305 318 325 333 337 338 339 339 340 345 354 358
210 210 202 200 196 189 187 182 175 168 148 137 126 108 113 128 127 117 114 97 64 67 91 108 108 114 125 146 202 213 200 196 201 202 203 205 204 205 202 207 227 237 243 243 247 254 263 280 289 287 293 307 319 327 336 338 338 340 341 341 344 349 352
208 207 202 199 195 192 188 178 173 170 157 148 136 125 127 123 111 103 104 99 81 75 96 105 88 82 105 95 56 205 204 204 208 207 203 205 206 200 193 195 214 238 251 250 250 249 260 309 315 296 303 319 330 337 340 341 342 346 348 347 347 347 346
206 204 200 195 189 188 184 173 170 169 165 164 152 145 150 132 107 92 75 65 75 84 107 95 72 67 86 35 6 2 194 196 205 206 195 187 190 199 189 188 205 229 249 249 241 235 252 316 325 312 326 335 342 344 344 345 349 353 356 358 356 355 358
206 204 197 191 186 182 178 173 174 174 172 176 176 175 181 166 143 124 79 73 76 72 79 76 72 75 57 8 353 345 198 190 200 203 193 181 187 200 182 176 204 226 239 235 225 228 255 327 343 337 341 346 347 346 345 349 353 355 1 7 8 13 23
206 205 198 190 186 182 180 178 180 183 182 184 188 192 198 197 187 186 105 93 96 83 76 57 10 358 354 354 357 348 211 194 195 194 193 191 199 205 177 165 205 217 208 203 206 216 246 359 355 342 344 348 347 346 347 350 353 356 4 12 18 26 36
206 206 201 194 192 192 191 191 195 199 195 193 195 198 203 207 208 223 234 139 124 108 67 10 335 328 324 323 327 306 235 207 199 194 198 201 201 199 180 169 204 204 185 188 196 193 174 9 349 341 343 345 344 346 349 350 352 360 7 16 24 31 38
205 205 205 203 200 201 201 203 210 210 205 204 204 202 203 204 208 222 235 227 205 224 318 341 329 321 319 320 321 271 221 203 197 196 200 201 193 195 187 179 194 200 191 192 192 177 161 343 341 339 340 340 342 346 350 352 357 6 12 20 28 34 41
204 204 207 207 205 208 209 209 214 216 212 211 210 205 202 201 207 219 233 241 248 259 273 313 324 316 314 338 22 192 214 212 201 196 200 202 193 195 189 179 186 200 204 203 201 186 313 333 336 338 337 335 340 349 354 357 3 13 20 29 35 38 41
203 205 208 209 207 211 212 210 215 218 213 210 211 207 204 205 208 215 228 239 251 261 266 288 307 303 297 318 6 204 220 222 213 202 203 206 197 198 196 185 187 200 207 211 221 273 313 328 334 337 336 337 346 358 2 2 10 19 28 35 38 40 41
202 208 210 210 208 208 208 207 210 211 206 206 209 209 209 211 211 215 227 239 249 256 263 275 287 288 283 282 280 249 226 221 223 218 214 208 203 211 212 202 196 193 197 213 237 293 322 335 336 336 341 347 357 6 7 9 15 23 31 36 34 39 41
203 209 210 208 205 204 204 203 203 199 198 204 209 211 212 212 211 215 228 236 242 250 258 268 274 277 271 266 273 261 231 219 222 223 221 213 210 219 218 210 202 194 200 218 228 247 311 333 335 339 348 355 3 9 11 14 18 22 27 27 25 33 38
202 204 200 197 199 202 202 200 196 191 197 207 208 206 208 208 205 206 217 221 223 232 247 259 267 269 262 254 258 254 237 222 217 219 219 214 215 219 214 207 203 202 212 219 199 194 258 324 336 345 353 357 6 14 14 18 21 21 20 14 11 19 25
198 195 191 191 196 200 199 196 192 193 204 207 197 195 198 198 197 203 210 207 207 218 234 250 261 261 251 242 237 241 239 227 221 221 213 207 212 216 209 203 202 206 215 199 175 193 253 327 343 355 360 2 11 18 15 19 23 20 13 3 357 3 10
193 191 191 192 195 196 194 194 195 199 199 188 179 183 189 191 198 211 210 199 203 216 232 246 254 247 235 225 224 232 236 229 223 221 211 200 195 196 192 190 194 202 206 184 176 198 241 336 355 3 7 9 13 15 13 17 20 17 11 3 352 353 0
192 192 192 189 188 189 190 193 193 186 179 175 177 182 188 195 204 213 204 196 209 225 236 242 239 231 221 214 219 232 238 235 221 206 202 187 174 174 170 167 176 185 186 177 178 191 205 347 1 5 9 11 11 9 11 16 17 16 14 10 5 355 354
193 194 188 182 181 182 185 188 180 168 168 171 174 172 177 190 198 199 192 195 217 229 234 237 226 219 216 217 225 230 234 235 213 190 187 168 158 162 161 157 159 160 160 170 183 191 207 345 359 3 5 7 6 6 12 17 16 19 19 18 19 9 359
193 191 184 179 178 177 177 177 168 164 167 170 171 169 170 177 180 186 189 192 210 220 223 225 221 217 216 219 224 219 218 217 190 180 175 162 158 162 158 151 153 155 162 180 191 200 258 345 355 0 2 0 1 6 15 17 19 26 26 23 23 19 14
191 190 184 179 176 175 177 180 175 167 167 173 180 179 177 176 174 180 187 184 196 216 217 212 213 211 199 191 189 188 183 164 164 173 172 166 168 169 157 156 165 169 181 194 196 222 293 343 354 356 355 355 360 10 19 23 27 32 32 28 25 23 22
190 189 184 177 176 178 180 184 186 176 172 177 180 175 171 170 166 170 183 181 181 197 204 203 208 201 168 148 145 152 150 143 153 168 172 172 177 174 163 168 180 184 195 200 201 243 288 339 350 347 347 351 1 17 26 29 33 33 34 32 28 25 26
188 183 178 173 174 177 177 180 185 180 174 170 168 164 162 162 160 163 176 179 173 180 189 196 201 181 144 127 128 132 127 133 147 160 169 174 178 177 173 178 187 193 202 208 225 263 296 332 337 334 342 350 5 38 34 31 33 30 30 29 26 24 26
184 176 172 169 168 169 169 170 170 168 165 162 161 159 158 160 159 158 168 175 171 173 179 184 184 164 139 127 125 125 121 126 139 151 163 173 178 181 184 190 197 203 209 224 248 272 300 320 324 332 346 357 37 55 38 31 30 26 21 20 18 17 19
176 172 172 169 166 163 160 159 160 163 164 161 160 158 157 157 154 154 166 171 167 173 174 171 165 151 137 131 129 129 130 130 135 144 154 166 175 182 190 198 204 209 212 223 239 261 292 312 329 346 7 43 52 38 38 32 24 18 12 10 9 7 10
172 172 171 167 163 159 155 156 159 159 157 157 159 157 154 156 156 156 168 170 170 175 166 153 149 145 139 136 134 135 138 137 138 142 144 150 158 169 184 192 198 204 205 216 242 259 284 337 33 57 75 63 31 26 28 21 14 7 1 360 359 358 360
171 169 166 160 157 156 153 152 150 148 151 156 157 152 148 154 164 167 180 176 167 164 155 145 142 146 144 138 135 138 144 144 144 144 139 137 140 148 162 167 166 174 182 212 254 234 150 119 113 105 75 35 17 11 3 358 356 353 349 348 348 349 351
166 163 164 160 156 156 154 151 150 154 159 158 154 151 150 156 169 179 191 183 159 154 153 144 141 147 148 143 139 143 150 152 151 147 137 131 133 136 141 144 145 145 144 143 149 144 134 132 135 123 355 336 333 332 330 329 330 331 333 335 336 339 342
163 162 164 163 162 161 157 154 157 165 172 165 158 159 161 161 173 190 199 190 167 157 154 147 144 150 154 151 147 151 157 158 154 147 136 128 129 130 131 133 134 134 134 136 137 138 138 145 181 281 305 311 314 315 316 317 317 317 319 321 322 326 330
164 166 168 167 166 164 160 162 168 175 182 177 167 170 171 161 179 204 203 192 180 168 158 152 152 157 160 159 157 157 161 163 158 150 140 133 133 133 131 133 135 137 141 143 144 145 149 165 298 315 320 320 319 318 317 315 313 311 311 311 310 312 318
170 171 172 171 170 167 168 173 177 179 182 180 177 183 179 164 177 203 191 183 178 169 158 154 158 164 167 167 165 163 166 168 164 156 147 145 145 141 137 139 144 147 153 163 173 186 208 297 321 328 329 327 326 326 322 317 313 310 308 305 301 300 305
174 177 179 178 176 175 177 180 179 178 180 181 182 186 179 167 168 170 161 163 165 159 151 151 155 165 174 175 170 167 169 172 169 162 155 157 160 159 155 156 161 169 181 198 227 256 274 294 312 325 329 327 325 324 324 325 324 318 310 303 296 293 296
179 184 187 188 185 183 186 187 183 174 167 164 166 172 174 168 163 153 145 148 151 149 146 145 140 144 166 175 171 169 172 176 175 170 164 164 170 175 179 183 193 211 228 241 259 276 283 289 301 317 324 324 319 317 322 333 337 332 320 307 298 291 290
183 187 193 196 194 191 193 194 188 174 158 145 147 161 169 169 168 164 150 143 146 147 147 145 135 131 146 163 168 170 174 180 184 183 181 180 182 186 193 205 224 243 259 267 273 279 283 287 293 304 313 317 315 312 318 328 335 339 336 324 308 293 283
187 191 195 196 195 197 199 200 195 182 168 157 160 165 168 172 178 177 161 147 150 153 156 159 152 141 142 153 164 172 178 182 188 193 196 199 201 204 213 229 246 253 258 267 275 280 284 288 292 297 304 308 306 305 313 325 333 342 347 342 326 305 289
185 188 190 192 194 198 200 201 199 192 186 185 175 165 168 178 182 178 171 164 162 163 167 172 168 158 153 155 163 172 180 185 190 196 202 208 212 218 229 242 250 253 259 270 281 287 286 286 288 290 295 300 300 301 310 320 327 339 352 353 345 331 316
183 182 184 190 193 194 196 199 201 201 195 176 156 150 157 167 167 167 172 178 176 174 175 174 170 168 171 174 174 177 184 192 198 205 213 219 226 233 242 254 260 262 267 273 277 278 277 278 281 282 285 291 293 298 307 311 312 327 347 356 355 351 345
180 179 181 187 191 194 199 200 196 187 174 157 144 141 145 148 149 152 159 170 178 176 172 167 162 166 176 182 181 178 186 199 211 217 219 224 236 247 257 269 275 279 285 287 282 277 275 278 281 281 284 287 289 293 302 305 301 308 326 343 353 357 357
Height
1511 1512 1513 1514 1516 1517 1518 1518 1518 1519 1520 1520 1520 1519 1519 1520 1520 1520 1520 1521 1521 1521 1521 1522 1522 1522 1523 1523 1524 1525 1525 1526 1526 1527 1527 1528 1528 1529 1530 1531 1531 1532 1532 1532 1532 1532 1533 1532 1532 1532 1532 1532 1532 1531 1530 1530 1529 1528 1526 1525 1523 1522 1522
1510 1512 1513 1514 1516 1517 1517 1518 1519 1519 1520 1520 1520 1519 1520 1520 1521 1521 1521 1522 1522 1522 1522 1522 1523 1523 1524 1524 1524 1525 1525 1526 1527 1527 1528 1528 1529 1529 1530 1531 1531 1532 1532 1532 1532 1532 1533 1533 1533 1533 1532 1532 1532 1531 1531 1530 1528 1527 1526 1524 1523 1523 1522
1510 1511 1513 1515 1515 1516 1517 1518 1519 1519 1520 1520 1520 1520 1520 1521 1521 1522 1522 1522 1522 1523 1523 1523 1523 1524 1524 1524 1525 1525 1526 1526 1527 1528 1528 1529 1529 1530 1530 1531 1532 1532 1532 1532 1532 1533 1533 1533 1533 1533 1533 1532 1532 1531 1531 1529 1528 1527 1525 1524 1523 1523 1522
1510 1511 1513 1515 1515 1516 1517 1518 1519 1520 1520 1520 1520 1520 1521 1521 1522 1522 1522 1523 1523 1524 1524 1524 1524 1524 1525 1525 1525 1526 1526 1527 1527 1528 1529 1529 1530 1530 1530 1531 1531 1531 1531 1531 1532 1532 1533 1533 1533 1533 1533 1533 1532 1532 1530 1529 1527 1526 1525 1524 1524 1523 1523
1510 1511 1513 1514 1515 1516 1517 1518 1519 1520 1520 1521 1520 1521 1522 1522 1522 1522 1523 1523 1523 1524 1524 1524 1525 1525 1525 1525 1525 1526 1526 1527 1527 1528 1529 1529 1530 1530 1530 1531 1531 1531 1531 1531 1532 1533 1533 1533 1533 1533 1533 1533 1532 1532 1530 1529 1527 1526 1525 1524 1524 1523 1523
1509 1511 1512 1514 1515 1516 1517 1518 1519 1519 1521 1521 1521 1522 1522 1522 1523 1523 1524 1524 1524 1525 1525 1525 1525 1525 1526 1526 1526 1526 1526 1527 1527 1528 1529 1529 1530 1530 1530 1531 1531 1531 1531 1531 1532 1533 1533 1534 1533 1533 1533 1533 1533 1532 1530 1529 1527 1526 1525 1524 1524 1523 1522
1508 1510 1512 1514 1515 1516 1517 1518 1519 1519 1520 1521 1521 1522 1522 1523 1524 1524 1524 1524 1524 1525 1525 1525 1526 1526 1526 1526 1526 1526 1526 1527 1527 1528 1529 1529 1529 1530 1530 1530 1530 1531 1531 1531 1532 1533 1533 1534 1533 1533 1533 1533 1532 1531 1530 1529 1527 1526 1525 1524 1524 1523 1523
1508 1510 1512 1514 1515 1516 1517 1518 1519 1520 1520 1521 1521 1522 1523 1523 1524 1524 1524 1525 1525 1525 1526 1526 1526 1526 1526 1526 1526 1526 1526 1527 1527 1528 1529 1529 1529 1529 1529 1530 1530 1530 1531 1532 1532 1533 1533 1534 1534 1534 1533 1533 1532 1531 1530 1528 1527 1526 1525 1525 1524 1524 1523
1508 1510 1512 1514 1515 1516 1517 1518 1519 1520 1520 1521 1522 1522 1523 1523 1524 1524 1525 1525 1525 1526 1526 1526 1526 1526 1526 1526 1526 1526 1526 1527 1527 1528 1528 1529 1529 1529 1529 1530 1530 1531 1531 1532 1533 1533 1534 1534 1534 1534 1534 1533 1532 1531 1530 1528 1527 1526 1526 1525 1525 1524 1524
1507 1510 1511 1514 1515 1516 1517 1518 1519 1519 1520 1521 1521 1522 1523 1523 1524 1524 1525 1525 1525 1526 1526 1526 1526 1526 1526 1526 1526 1526 1526 1526 1527 1528 1528 1528 1528 1528 1529 1529 1530 1531 1532 1532 1533 1533 1534 1534 1534 1534 1534 1533 1532 1531 1530 1529 1527 1527 1526 1525 1525 1525 1524
1507 1509 1511 1513 1514 1515 1517 1518 1518 1519 1520 1521 1521 1522 1523 1523 1524 1524 1524 1525 1525 1526 1526 1526 1526 1526 1526 1526 1526 1526 1526 1526 1527 1527 1527 1527 1527 1528 1528 1529 1530 1531 1532 1533 1533 1534 1534 1534 1534 1534 1534 1533 1532 1531 1530 1529 1528 1527 1526 1526 1526 1525 1525
1506 1508 1510 1512 1513 1515 1516 1517 1518 1519 1520 1521 1521 1522 1522 1523 1523 1524 1524 1525 1525 1526 1526 1526 1526 1526 1526 1526 1526 1526 1526 1526 1527 1527 1527 1527 1527 1528 1528 1529 1530 1531 1532 1533 1534 1534 1534 1535 1535 1535 1534 1533 1532 1531 1530 1529 1528 1527 1527 1526 1526 1526 1526
1506 1508 1510 1512 1513 1514 1515 1516 1518 1519 1520 1520 1521 1521 1522 1522 1523 1524 1524 1525 1525 1525 1525 1526 1526 1526 1526 1526 1526 1526 1526 1526 1526 1526 1526 1527 1527 1528 1529 1529 1530 1531 1533 1534 1534 1535 1535 1535 1535 1535 1534 1533 1532 1531 1530 1529 1528 1528 1527 1527 1527 1527 1526
1506 1508 1510 1511 1513 1514 1515 1516 1517 1518 1519 1520 1520 1521 1522 1522 1523 1524 1524 1525 1525 1525 1525 1525 1526 1526 1526 1526 1526 1526 1526 1526 1526 1526 1526 1527 1527 1528 1528 1529 1530 1532 1533 1534 1535 1535 1536 1535 1535 1535 1534 1533 1532 1531 1530 1529 1529 1528 1528 1528 1528 1527 1527
1505 1507 1509 1511 1513 1514 1515 1516 1517 1518 1519 1519 1520 1520 1521 1522 1523 1523 1524 1524 1525 1525 1525 1525 1525 1525 1525 1525 1525 1525 1525 1526 1526 1526 1526 1527 1527 1528 1528 1530 1531 1532 1533 1534 1535 1536 1536 1536 1536 1535 1534 1533 1532 1532 1531 1530 1529 1529 1528 1528 1528 1528 1527
1505 1508 1509 1511 1513 1514 1515 1516 1517 1518 1519 1519 1519 1520 1521 1522 1523 1523 1524 1524 1524 1524 1524 1525 1525 1525 1525 1525 1525 1525 1525 1525 1526 1526 1526 1526 1527 1528 1528 1530 1531 1532 1534 1534 1535 1536 1536 1536 1536 1535 1535 1534 1533 1532 1531 1531 1530 1529 1529 1528 1528 1528 1528
1505 1507 1509 1511 1513 1514 1515 1516 1517 1518 1519 1519 1519 1520 1521 1522 1523 1523 1524 1524 1524 1524 1524 1524 1525 1524 1524 1525 1525 1525 1524 1525 1525 1526 1526 1526 1527 1528 1528 1530 1531 1532 1534 1534 1535 1536 1537 1537 1536 1536 1535 1534 1533 1533 1532 1531 1530 1530 1529 1529 1528 1528 1528
1505 1507 1509 1511 1512 1513 1515 1516 1517 1518 1518 1519 1519 1520 1521 1522 1522 1523 1523 1523 1524 1524 1524 1524 1524 1524 1524 1524 1525 1524 1524 1524 1525 1525 1525 1526 1527 1528 1529 1530 1531 1532 1534 1534 1535 1537 1537 1537 1537 1536 1536 1535 1534 1533 1532 1532 1531 1530 1530 1529 1528 1528 1527
1505 1507 1509 1511 1512 1513 1515 1516 1517 1518 1519 1519 1520 1520 1521 1522 1522 1523 1523 1523 1524 1523 1524 1524 1524 1524 1524 1524 1525 1524 1524 1524 1524 1524 1525 1526 1527 1528 1529 1530 1531 1532 1534 1535 1536 1537 1537 1537 1537 1536 1536 1535 1534 1533 1533 1532 1531 1531 1530 1529 1528 1528 1527
1506 1508 1509 1511 1512 1514 1515 1516 1517 1519 1519 1519 1520 1520 1521 1522 1522 1523 1523 1523 1524 1524 1524 1524 1524 1524 1524 1524 1525 1525 1524 1524 1524 1524 1525 1526 1527 1528 1529 1530 1531 1533 1534 1535 1536 1537 1537 1537 1537 1537 1536 1536 1535 1534 1533 1533 1532 1531 1531 1530 1529 1528 1527
1506 1508 1510 1511 1513 1514 1515 1516 1517 1518 1519 1519 1520 1520 1521 1521 1522 1522 1523 1523 1524 1524 1524 1524 1524 1524 1524 1525 1525 1525 1525 1525 1525 1525 1525 1526 1527 1528 1529 1531 1532 1533 1534 1535 1536 1537 1537 1538 1537 1537 1537 1536 1535 1534 1534 1533 1533 1532 1531 1530 1529 1528 1527
1506 1508 1510 1511 1513 1514 1515 1517 1518 1518 1519 1519 1520 1520 1521 1521 1522 1523 1523 1523 1524 1524 1524 1524 1524 1524 1524 1525 1525 1525 1525 1525 1525 1525 1526 1527 1528 1529 1530 1531 1532 1533 1535 1536 1537 1537 1537 1538 1538 1537 1537 1536 1535 1535 1534 1534 1533 1532 1532 1531 1530 1528 1527
1506 1508 1510 1512 1514 1515 1516 1517 1518 1518 1519 1519 1520 1521 1521 1522 1522 1523 1523 1524 1524 1524 1524 1524 1524 1524 1525 1525 1525 1525 1525 1525 1526 1526 1527 1527 1528 1529 1530 1531 1533 1534 1535 1536 1536 1537 1538 1538 1538 1537 1537 1536 1535 1535 1535 1534 1534 1533 1532 1531 1530 1529 1528
1507 1509 1510 1512 1514 1515 1516 1517 1518 1519 1519 1519 1520 1521 1521 1522 1522 1523 1523 1524 1524 1524 1524 1524 1524 1524 1525 1525 1525 1526 1526 1526 1526 1527 1527 1528 1529 1530 1531 1532 1533 1534 1535 1536 1536 1537 1538 1538 1537 1537 1537 1536 1536 1535 1535 1534 1534 1533 1533 1532 1531 1530 1529
1507 1509 1511 1512 1514 1515 1516 1517 1518 1519 1520 1520 1520 1521 1521 1522 1523 1523 1523 1524 1524 1524 1524 1524 1525 1525 1525 1526 1526 1526 1527 1527 1527 1528 1528 1529 1529 1530 1531 1532 1533 1534 1534 1536 1536 1537 1537 1537 1537 1537 1536 1536 1536 1535 1535 1535 1534 1534 1533 1533 1532 1531 1530
1507 1509 1511 1512 1514 1515 1516 1517 1518 1519 1520 1520 1521 1521 1522 1522 1523 1523 1524 1524 1524 1524 1524 1525 1525 1525 1526 1526 1526 1527 1528 1528 1528 1528 1529 1529 1530 1531 1531 1532 1533 1534 1535 1535 1536 1536 1537 1537 1537 1537 1536 1536 1536 1536 1536 1535 1535 1534 1534 1533 1532 1531 1530
1507 1509 1511 1513 1514 1515 1516 1517 1518 1519 1520 1521 1521 1522 1522 1522 1523 1523 1523 1524 1524 1524 1524 1525 1525 1526 1526 1527 1527 1528 1528 1528 1529 1529 1529 1530 1530 1531 1532 1532 1533 1534 1535 1535 1536 1536 1536 1536 1537 1537 1537 1537 1536 1536 1536 1536 1535 1534 1534 1533 1532 1531 1530
1507 1509 1511 1513 1514 1515 1516 1517 1518 1519 1520 1521 1521 1522 1522 1522 1523 1523 1523 1524 1524 1524 1525 1525 1525 1526 1527 1527 1527 1528 1529 1529 1529 1530 1530 1530 1531 1531 1532 1533 1533 1534 1535 1535 1536 1536 1536 1536 1537 1537 1537 1537 1536 1536 1536 1536 1535 1534 1534 1533 1532 1531 1531
1507 1509 1511 1513 1514 1516 1516 1517 1518 1519 1520 1520 1521 1522 1522 1523 1523 1523 1523 1524 1524 1524 1525 1525 1526 1526 1527 1527 1528 1528 1529 1529 1530 1530 1530 1531 1531 1532 1532 1533 1534 1534 1535 1535 1536 1536 1536 1536 1537 1537 1536 1536 1536 1536 1536 1535 1535 1534 1533 1533 1532 1531 1530
1507 1509 1511 1513 1514 1515 1516 1517 1518 1519 1520 1520 1521 1521 1522 1523 1523 1523 1523 1524 1524 1525 1525 1525 1526 1526 1527 1527 1528 1529 1529 1529 1530 1530 1531 1531 1531 1532 1533 1533 1534 1534 1535 1535 1536 1536 1536 1536 1536 1536 1536 1536 1536 1535 1535 1535 1534 1533 1533 1532 1531 1531 1530
1507 1509 1511 1513 1514 1515 1516 1517 1518 1519 1520 1520 1521 1521 1522 1522 1523 1523 1523 1524 1524 1525 1525 1526 1526 1526 1527 1527 1528 1528 1529 1529 1530 1530 1531 1531 1532 1532 1533 1534 1534 1535 1535 1535 1535 1536 1536 1536 1536 1535 1535 1535 1535 1535 1535 1534 1533 1532 1531 1530 1530 1529 1529
1508 1509 1511 1512 1513 1515 1516 1517 1518 1519 1520 1520 1521 1521 1522 1522 1523 1523 1523 1524 1524 1525 1525 1526 1526 1526 1527 1527 1528 1528 1529 1529 1530 1531 1531 1532 1532 1533 1534 1534 1535 1535 1535 1535 1535 1535 1535 1535 1535 1535 1535 1535 1534 1534 1533 1533 1532 1531 1530 1529 1528 1528 1528
1507 1509 1510 1512 1513 1514 1516 1517 1519 1520 1520 1520 1521 1521 1522 1522 1523 1523 1524 1524 1525 1525 1526 1526 1526 1526 1527 1527 1528 1528 1529 1529 1530 1531 1531 1532 1533 1533 1534 1534 1535 1535 1535 1535 1535 1535 1535 1535 1535 1535 1534 1534 1534 1533 1532 1532 1531 1530 1528 1527 1527 1526 1526
1506 1508 1510 1511 1513 1515 1516 1517 1519 1520 1520 1521 1521 1521 1522 1522 1523 1524 1524 1524 1525 1525 1526 1526 1527 1527 1527 1527 1528 1528 1529 1530 1530 1531 1532 1532 1533 1533 1534 1534 1534 1534 1534 1535 1534 1534 1534 1534 1534 1534 1534 1533 1533 1532 1532 1531 1530 1529 1527 1526 1525 1525 1525
1506 1508 1510 1511 1513 1515 1516 1517 1519 1519 1520 1521 1521 1521 1522 1522 1523 1524 1524 1524 1525 1525 1526 1527 1527 1527 1528 1528 1528 1529 1529 1530 1530 1531 1531 1532 1532 1533 1533 1534 1534 1534 1534 1534 1533 1533 1534 1533 1533 1534 1533 1532 1532 1531 1531 1530 1529 1528 1526 1525 1524 1524 1524
1506 1508 1510 1511 1513 1515 1516 1518 1519 1519 1520 1520 1520 1521 1521 1522 1523 1524 1524 1524 1525 1525 1526 1527 1527 1527 1528 1528 1528 1529 1529 1530 1530 1531 1531 1532 1532 1533 1533 1533 1533 1533 1533 1533 1532 1532 1533 1533 1533 1533 1532 1531 1531 1530 1530 1530 1529 1528 1526 1525 1524 1523 1523
1507 1508 1510 1512 1513 1515 1516 1518 1518 1519 1520 1520 1520 1521 1521 1522 1523 1523 1523 1524 1524 1525 1526 1526 1527 1527 1528 1528 1528 1528 1529 1530 1530 1530 1531 1531 1532 1532 1532 1532 1532 1532 1531 1531 1531 1531 1531 1531 1531 1531 1531 1530 1530 1530 1530 1529 1528 1527 1526 1525 1524 1523 1522
1507 1508 1510 1512 1513 1515 1516 1517 1518 1519 1519 1520 1520 1520 1521 1521 1522 1522 1523 1523 1524 1525 1526 1526 1527 1527 1527 1528 1528 1528 1528 1529 1529 1530 1530 1531 1531 1531 1531 1531 1531 1531 1530 1530 1530 1530 1530 1530 1530 1530 1529 1528 1528 1528 1528 1528 1527 1527 1526 1525 1524 1523 1522